{"data":{"norad_id":56081,"intl_designator":"2023-043AM","name":"ONEWEB-0718","alt_names":[],"object_type":"PAYLOAD","status":"ACTIVE","operator":null,"country":"UK","launch_date":"2023-03-26","launch_site_code":"SRILR","launch_vehicle":null,"mission":null,"orbit_class":"UNKNOWN","rcs_meters":null,"size_class":null,"mass_kg":null,"dimensions":null,"purposes":["comms"],"wikipedia_slug":null,"has_3d_model":false,"image_url":null,"decayed_at":null,"tle_current":{"epoch":"2026-05-24T20:12:36.487872Z","epoch_age_seconds":99422,"freshness":"FRESH","line1":"1 56081U 23043AM  26144.84208898  .00000021  00000+0  22158-4 0  9990","line2":"2 56081  87.8988 263.8536 0001841 116.3461 243.7859 13.15549361153363","mean_motion":13.15549361,"eccentricity":0.0001841,"inclination_deg":87.8988,"raan_deg":263.8536,"arg_perigee_deg":116.3461,"mean_anomaly_deg":243.7859,"bstar":2.2158e-5,"rev_number":15336,"period_min":109.45997487357,"perigee_km":1200.3721918116,"apogee_km":1203.1631127046,"semimajor_km":7579.9046522581,"source":"CELESTRAK","updated_at":"2026-05-25T13:38:22.707775Z"}}}